Location: Champs
(48.8539°N, 2.6040°E)
Time: 13:32:21
(UTC+00:00)

Cosmos 1680 Rocket - Pass Details

Date: 26 October 2021
Orbit: 759 x 782 km, 74.1° (Epoch: 06 December)

Event Time Altitude Azimuth Distance (km) Brightness Sun altitude
Rises 04:46:30 0° 195° (SSW) 3,217 6.6 -17.1°
Reaches altitude 10° 04:48:51 10° 193° (SSW) 2,299 5.8 -16.7°
Maximum altitude 04:54:03 73° 110° (ESE) 807 3.7 -15.9°
Drops below altitude 10° 04:59:19 10° 26° (NNE) 2,331 6.3 -15.0°
Sets 05:01:43 0° 25° (NNE) 3,266 7.1 -14.6°
